Weather History for KCPC - January, 2013

Change the Weather History Date:

Tuesday, January 22, 2013

  Actual Average (KLBT) Record (KLBT)
Temperature  
Mean Temperature 39 °F 44 °F  
Max Temperature 49 °F 54 °F - ()
Min Temperature 28 °F 33 °F - ()
Degree Days  
Heating Degree Days 26 22  
Month to date heating degree days 483  
Since 1 July heating degree days 1533  
Cooling Degree Days 0 0  
Month to date cooling degree days 0  
Year to date cooling degree days 0  
Moisture  
Dew Point 19 °F    
Average Humidity 45    
Maximum Humidity 80    
Minimum Humidity 22    
Precipitation  
Precipitation 0.00 in 0.10 in - ()
Month to date precipitation 1.92  
Year to date precipitation 1.92  
Sea Level Pressure  
Sea Level Pressure 30.15 in    
Wind  
Wind Speed 2 mph (NW)    
Max Wind Speed 9 mph    
Max Gust Speed -    
Visibility 10 miles    
Events      
T = Trace of Precipitation, MM = Missing Value Source: NWS Daily Summary

Daily Weather History Graph

Daily Weather History Graph

Search for Another Location

Airport or City:

Trip Planner

Search our weather history database for the weather conditions in past years. The results will help you decide how hot, cold, wet, or windy it might be!

Date:

Astronomy

Jan. 22, 2013 Rise Set
Actual Time 7:18 AM EST 5:35 PM EST
Civil Twilight 6:51 AM EST 6:02 PM EST
Nautical Twilight 6:20 AM EST 6:32 PM EST
Astronomical Twilight 5:50 AM EST 7:02 PM EST
Moon 1:58 PM EST (1/22) 3:36 AM EST (1/22)
Length of Visible Light 11h 10m
Length of Day
10h 17m
Waxing Gibbous, 82% of the Moon is Illuminated
Jan 22
Waxing Gibbous
Jan 26
Full
Feb 3
Last Quarter
Feb 10
New
Feb 17
First Quarter

Hourly Weather History & Observations

Time (EST) Temp. Windchill Dew Point Humidity Pressure Visibility Wind Dir Wind Speed Gust Speed Precip Events Conditions
12:15 AM 50.7 °F - 29.1 °F 43% 29.99 in 10.0 mi Calm Calm - N/A   Clear
12:35 AM 50.0 °F - 27.5 °F 42% 29.99 in 10.0 mi Calm Calm - N/A   Clear
12:55 AM 49.3 °F - 25.3 °F 39% 29.99 in 10.0 mi WNW 3.5 mph - N/A   Clear
1:15 AM 48.9 °F - 24.1 °F 38% 29.99 in 10.0 mi West 3.5 mph - N/A   Clear
1:35 AM 48.2 °F - 24.1 °F 39% 29.99 in 10.0 mi Calm Calm - N/A   Clear
1:55 AM 46.2 °F - 27.1 °F 47% 30.00 in 10.0 mi Calm Calm - N/A   Clear
2:15 AM 45.1 °F - 27.0 °F 49% 30.00 in 10.0 mi Calm Calm - N/A   Clear
2:55 AM 42.1 °F - 27.5 °F 56% 30.02 in 10.0 mi Calm Calm - N/A   Clear
3:15 AM 41.2 °F - 28.6 °F 61% 30.03 in 10.0 mi Calm Calm - N/A   Clear
3:35 AM 43.3 °F 41.7 °F 27.0 °F 52% 30.03 in 10.0 mi West 3.5 mph - N/A   Clear
3:55 AM 43.3 °F - 26.4 °F 51% 30.03 in 10.0 mi Calm Calm - N/A   Clear
4:15 AM 42.6 °F 40.9 °F 26.1 °F 52% 30.03 in 10.0 mi West 3.5 mph - N/A   Clear
4:35 AM 42.1 °F - 25.5 °F 52% 30.04 in 10.0 mi Calm Calm - N/A   Clear
4:55 AM 41.9 °F - 24.6 °F 50% 30.04 in 10.0 mi Calm Calm - N/A   Clear
5:15 AM 40.5 °F - 25.0 °F 54% 30.05 in 10.0 mi Calm Calm - N/A   Clear
5:35 AM 40.5 °F - 24.8 °F 54% 30.06 in 10.0 mi Calm Calm - N/A   Clear
5:55 AM 39.7 °F - 26.6 °F 59% 30.08 in 10.0 mi Calm Calm - N/A   Clear
6:15 AM 40.1 °F - 24.6 °F 54% 30.09 in 10.0 mi Calm Calm - N/A   Clear
6:35 AM 39.2 °F - 24.6 °F 56% 30.11 in 10.0 mi Calm Calm - N/A   Clear
6:55 AM 37.6 °F - 25.3 °F 61% 30.12 in 10.0 mi Calm Calm - N/A   Clear
7:15 AM 36.0 °F - 26.8 °F 69% 30.13 in 10.0 mi Calm Calm - N/A   Clear
7:35 AM 35.1 °F - 26.8 °F 72% 30.14 in 10.0 mi Calm Calm - N/A   Clear
7:55 AM 36.1 °F 33.5 °F 26.1 °F 67% 30.16 in 10.0 mi North 3.5 mph - N/A   Clear
8:15 AM 38.7 °F 36.3 °F 17.8 °F 43% 30.16 in 10.0 mi North 3.5 mph - N/A   Clear
8:35 AM 39.4 °F 37.2 °F 17.1 °F 41% 30.17 in 10.0 mi North 3.5 mph - N/A   Clear
8:55 AM 40.3 °F 36.3 °F 15.3 °F 36% 30.18 in 10.0 mi NNE 5.8 mph - N/A   Clear
9:15 AM 40.3 °F 34.4 °F 13.5 °F 34% 30.18 in 10.0 mi NNE 9.2 mph - N/A   Clear
9:35 AM 40.3 °F 35.5 °F 11.3 °F 31% 30.19 in 10.0 mi North 6.9 mph - N/A   Clear
9:55 AM 40.6 °F 37.5 °F 11.7 °F 31% 30.20 in 10.0 mi NNW 4.6 mph - N/A   Clear
10:15 AM 41.9 °F 39.0 °F 12.0 °F 30% 30.21 in 10.0 mi North 4.6 mph - N/A   Clear
10:35 AM 42.4 °F 39.6 °F 11.5 °F 28% 30.21 in 10.0 mi NNW 4.6 mph - N/A   Clear
10:55 AM 42.8 °F - 10.6 °F 27% 30.21 in 10.0 mi Calm Calm - N/A   Clear
11:15 AM 42.6 °F 39.9 °F 10.2 °F 27% 30.21 in 10.0 mi NW 4.6 mph - N/A   Clear
11:35 AM 43.5 °F 40.9 °F 10.0 °F 26% 30.21 in 10.0 mi NNW 4.6 mph - N/A   Clear
11:55 AM 43.9 °F 41.3 °F 8.6 °F 24% 30.20 in 10.0 mi WNW 4.6 mph - N/A   Clear
12:15 PM 44.6 °F 42.2 °F 9.3 °F 24% 30.19 in 10.0 mi North 4.6 mph - N/A   Clear
12:35 PM 44.6 °F 42.2 °F 9.7 °F 24% 30.18 in 10.0 mi NNW 4.6 mph - N/A   Clear
12:55 PM 44.8 °F - 9.0 °F 23% 30.17 in 10.0 mi Calm Calm - N/A   Clear
1:15 PM 45.0 °F 43.5 °F 9.0 °F 23% 30.17 in 10.0 mi West 3.5 mph - N/A   Clear
1:35 PM 45.5 °F 43.2 °F 9.0 °F 23% 30.16 in 10.0 mi North 4.6 mph - N/A   Clear
1:55 PM 45.7 °F 43.4 °F 9.9 °F 23% 30.16 in 10.0 mi NNE 4.6 mph - N/A   Clear
2:15 PM 46.8 °F - 10.6 °F 23% 30.16 in 10.0 mi West 6.9 mph - N/A   Clear
2:35 PM 46.4 °F 43.5 °F 10.8 °F 24% 30.16 in 10.0 mi West 5.8 mph - N/A   Clear
2:55 PM 46.2 °F 43.3 °F 9.3 °F 22% 30.16 in 10.0 mi WNW 5.8 mph - N/A   Clear
3:15 PM 46.2 °F 45.0 °F 10.0 °F 23% 30.16 in 10.0 mi West 3.5 mph - N/A   Clear
3:35 PM 45.9 °F 43.6 °F 9.3 °F 23% 30.16 in 10.0 mi West 4.6 mph - N/A   Clear
3:55 PM 46.4 °F 45.2 °F 11.1 °F 24% 30.18 in 10.0 mi West 3.5 mph - N/A   Clear
4:15 PM 46.4 °F 45.2 °F 10.8 °F 24% 30.19 in 10.0 mi West 3.5 mph - N/A   Clear
4:35 PM 45.7 °F - 10.6 °F 24% 30.19 in 10.0 mi Calm Calm - N/A   Clear
4:55 PM 45.5 °F - 11.3 °F 25% 30.19 in 10.0 mi Calm Calm - N/A   Clear
5:15 PM 44.2 °F - 11.7 °F 27% 30.19 in 10.0 mi Calm Calm - N/A   Clear
5:35 PM 43.5 °F - 12.0 °F 28% 30.20 in 10.0 mi Calm Calm - N/A   Clear
5:55 PM 42.3 °F - 14.5 °F 33% 30.20 in 10.0 mi Calm Calm - N/A   Clear
6:15 PM 39.7 °F - 17.2 °F 40% 30.21 in 10.0 mi Calm Calm - N/A   Clear
6:35 PM 37.8 °F - 19.0 °F 47% 30.21 in 10.0 mi Calm Calm - N/A   Clear
6:55 PM 37.4 °F - 20.5 °F 51% 30.21 in 10.0 mi Calm Calm - N/A   Clear
7:15 PM 35.8 °F - 23.7 °F 62% 30.22 in 10.0 mi Calm Calm - N/A   Clear
7:35 PM 34.9 °F - 21.2 °F 57% 30.23 in 10.0 mi Calm Calm - N/A   Clear
7:55 PM 33.4 °F - 20.8 °F 60% 30.23 in 10.0 mi Calm Calm - N/A   Clear
8:15 PM 33.8 °F - 22.3 °F 63% 30.24 in 10.0 mi Calm Calm - N/A   Clear
8:35 PM 32.4 °F - 23.0 °F 68% 30.24 in 10.0 mi Calm Calm - N/A   Clear
8:55 PM 32.0 °F - 22.8 °F 69% 30.23 in 10.0 mi Calm Calm - N/A   Clear
9:15 PM 32.0 °F - 22.3 °F 67% 30.24 in 10.0 mi Calm Calm - N/A   Clear
9:35 PM 30.6 °F - 22.6 °F 72% 30.23 in 10.0 mi Calm Calm - N/A   Clear
9:55 PM 30.9 °F - 22.6 °F 71% 30.24 in 10.0 mi Calm Calm - N/A   Clear
10:15 PM 30.9 °F - 20.7 °F 66% 30.24 in 10.0 mi Calm Calm - N/A   Clear
10:35 PM 30.6 °F - 23.2 °F 74% 30.24 in 10.0 mi Calm Calm - N/A   Clear
10:55 PM 30.0 °F - 23.4 °F 76% 30.25 in 10.0 mi Calm Calm - N/A   Clear
11:15 PM 29.1 °F - 23.0 °F 78% 30.26 in 10.0 mi Calm Calm - N/A   Clear
11:35 PM 28.4 °F - 23.0 °F 80% 30.26 in 10.0 mi Calm Calm - N/A   Clear
11:55 PM 29.3 °F - 23.9 °F 80% 30.26 in 10.0 mi Calm Calm - N/A   Clear